�������l�o���
Date,Time,MP-1(��Sv/h),MP-2(��Sv/h),MP-3(��Sv/h),MP-4(��Sv/h),MP-5(��Sv/h),MP-6(��Sv/h),MP-7(��Sv/h),MP-8(��Sv/h),����,����(m/s),���J
2021/01/14,00:00,0.653,0.922,0.594,1.161,0.814,0.370,0.661,0.627,�쐼,6.2,��
2021/01/14,00:10,0.650,0.926,0.596,1.162,0.812,0.372,0.662,0.627,�쐼,6.7,��
2021/01/14,00:20,0.651,0.923,0.595,1.163,0.812,0.370,0.663,0.627,��쐼,6.6,��
2021/01/14,00:30,0.651,0.923,0.596,1.162,0.812,0.372,0.663,0.628,�쐼,5.4,��
2021/01/14,00:40,0.652,0.920,0.596,1.163,0.811,0.371,0.661,0.627,�쐼,5.1,��
2021/01/14,00:50,0.652,0.923,0.593,1.161,0.810,0.372,0.663,0.627,�쐼,5.6,��
2021/01/14,01:00,0.652,0.922,0.594,1.162,0.813,0.371,0.661,0.626,�쐼,5.6,��
2021/01/14,01:10,0.651,0.922,0.594,1.161,0.810,0.371,0.663,0.628,���쐼,5.5,��
2021/01/14,01:20,0.653,0.922,0.594,1.164,0.813,0.371,0.662,0.627,���쐼,2.3,��
2021/01/14,01:30,0.652,0.923,0.594,1.163,0.812,0.371,0.663,0.628,��,1.4,��
2021/01/14,01:40,0.652,0.920,0.595,1.164,0.812,0.372,0.664,0.627,�쐼,3.8,��
2021/01/14,01:50,0.652,0.920,0.594,1.164,0.812,0.372,0.662,0.627,���쐼,5.6,��
2021/01/14,02:00,0.651,0.921,0.596,1.164,0.813,0.371,0.663,0.628,�쐼,5.4,��
2021/01/14,02:10,0.650,0.922,0.596,1.162,0.813,0.372,0.663,0.627,�쐼,6.0,��
2021/01/14,02:20,0.652,0.921,0.595,1.163,0.813,0.372,0.662,0.628,�쐼,5.7,��
2021/01/14,02:30,0.652,0.921,0.595,1.162,0.812,0.371,0.662,0.626,�쐼,6.1,��
2021/01/14,02:40,0.651,0.921,0.596,1.162,0.813,0.373,0.664,0.626,�쐼,6.3,��
2021/01/14,02:50,0.655,0.920,0.594,1.163,0.811,0.373,0.662,0.626,�쐼,7.0,��
2021/01/14,03:00,0.652,0.921,0.594,1.164,0.811,0.371,0.663,0.627,�쐼,7.8,��
2021/01/14,03:10,0.652,0.921,0.596,1.163,0.810,0.371,0.662,0.626,�쐼,8.1,��
2021/01/14,03:20,0.654,0.921,0.595,1.163,0.810,0.371,0.663,0.628,�쐼,7.9,��
2021/01/14,03:30,0.653,0.922,0.596,1.162,0.813,0.371,0.662,0.627,��쐼,8.5,��
2021/01/14,03:40,0.655,0.922,0.595,1.164,0.812,0.372,0.665,0.626,��쐼,8.4,��
2021/01/14,03:50,0.653,0.919,0.595,1.163,0.811,0.372,0.662,0.627,��쐼,8.4,��
2021/01/14,04:00,0.652,0.920,0.595,1.163,0.812,0.373,0.665,0.628,��쐼,9.2,��
2021/01/14,04:10,0.652,0.921,0.595,1.163,0.812,0.372,0.664,0.627,��쐼,9.2,��
2021/01/14,04:20,0.655,0.922,0.597,1.164,0.811,0.371,0.664,0.626,��쐼,8.4,��
2021/01/14,04:30,0.652,0.923,0.594,1.161,0.814,0.372,0.664,0.626,��쐼,8.3,��
2021/01/14,04:40,0.653,0.924,0.594,1.165,0.813,0.372,0.664,0.626,�쐼,8.2,��
2021/01/14,04:50,0.654,0.922,0.595,1.163,0.812,0.373,0.665,0.628,�쐼,7.7,��
2021/01/14,05:00,0.653,0.921,0.593,1.163,0.811,0.371,0.665,0.629,�쐼,8.1,��
2021/01/14,05:10,0.654,0.921,0.595,1.165,0.815,0.371,0.663,0.626,��쐼,8.1,��
2021/01/14,05:20,0.654,0.923,0.596,1.164,0.811,0.373,0.663,0.628,��쐼,7.1,��
2021/01/14,05:30,0.654,0.922,0.596,1.163,0.815,0.371,0.662,0.627,��쐼,6.3,��
2021/01/14,05:40,0.655,0.921,0.595,1.165,0.812,0.372,0.664,0.627,��쐼,6.4,��
2021/01/14,05:50,0.653,0.922,0.596,1.164,0.811,0.371,0.662,0.627,��쐼,8.1,��
2021/01/14,06:00,0.654,0.922,0.594,1.163,0.812,0.372,0.662,0.626,��쐼,8.2,��
2021/01/14,06:10,0.654,0.920,0.596,1.164,0.811,0.372,0.663,0.627,��쐼,8.3,��
2021/01/14,06:20,0.655,0.921,0.596,1.163,0.813,0.372,0.663,0.626,��,8.7,��
2021/01/14,06:30,0.655,0.920,0.593,1.161,0.812,0.373,0.663,0.627,��,9.4,��
2021/01/14,06:40,0.654,0.922,0.595,1.164,0.812,0.371,0.664,0.627,��,8.5,��
2021/01/14,06:50,0.655,0.921,0.595,1.164,0.813,0.373,0.663,0.626,��,7.9,��
2021/01/14,07:00,0.655,0.921,0.596,1.164,0.814,0.371,0.664,0.628,��,6.3,��
2021/01/14,07:10,0.655,0.923,0.596,1.163,0.813,0.372,0.663,0.627,��,7.3,��
2021/01/14,07:20,0.653,0.922,0.596,1.164,0.812,0.370,0.663,0.627,��,7.1,��
2021/01/14,07:30,0.654,0.922,0.597,1.168,0.813,0.371,0.663,0.627,��,7.7,��
2021/01/14,07:40,0.654,0.923,0.597,1.164,0.811,0.371,0.663,0.627,��,8.1,��
2021/01/14,07:50,0.653,0.921,0.595,1.164,0.812,0.370,0.664,0.628,��,7.9,��
2021/01/14,08:00,0.654,0.923,0.596,1.164,0.813,0.371,0.663,0.628,��,6.9,��
2021/01/14,08:10,0.655,0.921,0.596,1.168,0.813,0.371,0.664,0.628,��,8.1,��
2021/01/14,08:20,0.654,0.923,0.596,1.164,0.812,0.372,0.666,0.627,��,7.7,��
2021/01/14,08:30,0.656,0.921,0.595,1.164,0.815,0.372,0.664,0.627,��,9.1,��
2021/01/14,08:40,0.653,0.921,0.595,1.164,0.811,0.372,0.665,0.628,��,5.8,��
2021/01/14,08:50,0.655,0.920,0.595,1.164,0.814,0.373,0.663,0.630,��,4.0,��
2021/01/14,09:00,0.656,0.919,0.596,1.164,0.812,0.371,0.665,0.627,��,4.1,��
2021/01/14,09:10,0.654,0.922,0.596,1.164,0.815,0.373,0.666,0.626,��,3.9,��
2021/01/14,09:20,0.657,0.922,0.595,1.165,0.814,0.372,0.665,0.628,��쓌,3.7,��
2021/01/14,09:30,0.657,0.922,0.596,1.165,0.815,0.372,0.666,0.629,��,3.9,��
2021/01/14,09:40,0.656,0.923,0.597,1.167,0.816,0.373,0.665,0.628,��,5.4,��
2021/01/14,09:50,0.657,0.923,0.597,1.166,0.814,0.373,0.663,0.628,��,4.7,��
2021/01/14,10:00,0.657,0.921,0.598,1.165,0.815,0.373,0.663,0.628,���쐼,7.1,��
2021/01/14,10:10,0.656,0.921,0.597,1.166,0.816,0.373,0.664,0.628,��,5.1,��
2021/01/14,10:20,0.658,0.922,0.598,1.167,0.817,0.373,0.664,0.627,��,6.5,��
2021/01/14,10:30,0.657,0.922,0.598,1.165,0.816,0.374,0.662,0.629,��,9.5,�L
2021/01/14,10:40,0.659,0.923,0.598,1.168,0.816,0.374,0.665,0.628,���쐼,8.8,��
2021/01/14,10:50,0.658,0.921,0.596,1.166,0.816,0.374,0.663,0.628,���쐼,10.5,�L
2021/01/14,11:00,0.658,0.923,0.600,1.169,0.817,0.374,0.663,0.628,���쐼,9.6,��
2021/01/14,11:10,0.655,0.923,0.596,1.168,0.817,0.373,0.665,0.627,���쐼,8.5,��
2021/01/14,11:20,0.656,0.921,0.596,1.167,0.817,0.373,0.663,0.628,��,8.3,��
2021/01/14,11:30,0.657,0.925,0.597,1.167,0.818,0.372,0.663,0.629,��,6.1,��
2021/01/14,11:40,0.657,0.925,0.598,1.168,0.816,0.374,0.662,0.628,���k��,6.1,��
2021/01/14,11:50,0.655,0.925,0.598,1.171,0.821,0.374,0.663,0.629,���k��,7.6,��
2021/01/14,12:00,0.657,0.927,0.599,1.169,0.820,0.373,0.665,0.629,���k��,9.1,��
2021/01/14,12:10,0.655,0.924,0.599,1.170,0.821,0.373,0.663,0.627,���k��,8.8,��
2021/01/14,12:20,0.658,0.924,0.599,1.172,0.822,0.374,0.663,0.628,���k��,9.0,�L
2021/01/14,12:30,0.659,0.923,0.600,1.172,0.822,0.374,0.664,0.629,���k��,7.9,��
2021/01/14,12:40,0.659,0.928,0.600,1.171,0.822,0.374,0.663,0.628,���k��,7.3,��
2021/01/14,12:50,0.658,0.927,0.600,1.172,0.822,0.375,0.664,0.628,���k��,4.7,��
2021/01/14,13:00,0.658,0.926,0.600,1.170,0.822,0.375,0.664,0.629,���k��,2.9,��
2021/01/14,13:10,0.658,0.924,0.599,1.171,0.824,0.375,0.664,0.629,�k��,4.1,��
2021/01/14,13:20,0.658,0.926,0.599,1.169,0.823,0.375,0.663,0.630,�k�k��,5.0,��
2021/01/14,13:30,0.657,0.925,0.600,1.170,0.822,0.375,0.664,0.629,�k,4.1,�L
2021/01/14,13:40,0.658,0.925,0.600,1.170,0.823,0.373,0.664,0.629,�k�k��,4.7,��
2021/01/14,13:50,0.657,0.926,0.600,1.170,0.823,0.374,0.663,0.627,�k�k��,5.8,��
2021/01/14,14:00,0.656,0.928,0.599,1.170,0.824,0.374,0.665,0.629,�k�k��,7.6,�L
2021/01/14,14:10,0.658,0.928,0.599,1.172,0.825,0.374,0.665,0.629,�k��,6.3,�L
2021/01/14,14:20,0.655,0.926,0.599,1.171,0.825,0.375,0.664,0.628,�k��,8.7,�L
2021/01/14,14:30,0.659,0.929,0.597,1.172,0.822,0.375,0.665,0.627,�k��,7.7,��
2021/01/14,14:40,0.656,0.926,0.598,1.173,0.826,0.374,0.665,0.628,�k��,8.5,��
2021/01/14,14:50,0.655,0.930,0.601,1.173,0.823,0.374,0.665,0.629,�k��,6.2,�L
2021/01/14,15:00,0.659,0.928,0.599,1.173,0.823,0.375,0.664,0.631,�k��,4.8,��
2021/01/14,15:10,0.656,0.929,0.598,1.172,0.822,0.375,0.665,0.630,�k�k��,3.7,��
2021/01/14,15:20,0.655,0.927,0.598,1.172,0.820,0.375,0.666,0.629,�k,3.7,��
2021/01/14,15:30,0.657,0.929,0.598,1.172,0.822,0.373,0.666,0.630,�k,4.8,��
2021/01/14,15:40,0.657,0.931,0.599,1.171,0.821,0.375,0.666,0.628,�k,4.9,��
2021/01/14,15:50,0.655,0.931,0.600,1.171,0.824,0.375,0.664,0.628,�k,6.3,��
2021/01/14,16:00,0.655,0.929,0.598,1.170,0.822,0.374,0.666,0.628,�k,6.8,��
2021/01/14,16:10,0.654,0.928,0.599,1.172,0.823,0.373,0.665,0.629,�k,7.3,��
2021/01/14,16:20,0.655,0.929,0.599,1.170,0.823,0.375,0.665,0.628,�k�k��,5.8,��
2021/01/14,16:30,0.654,0.931,0.599,1.172,0.823,0.375,0.666,0.627,�k�k��,7.4,�L
2021/01/14,16:40,0.655,0.929,0.599,1.172,0.821,0.373,0.666,0.628,�k�k��,6.4,��
2021/01/14,16:50,0.656,0.931,0.599,1.173,0.822,0.375,0.665,0.627,�k�k��,5.5,��
2021/01/14,17:00,0.655,0.931,0.599,1.170,0.824,0.373,0.667,0.629,�k�k��,4.2,��
2021/01/14,17:10,0.655,0.931,0.598,1.171,0.819,0.373,0.665,0.627,�k�k��,4.3,��
2021/01/14,17:20,0.654,0.931,0.599,1.170,0.820,0.375,0.665,0.628,�k�k��,4.4,��
2021/01/14,17:30,0.654,0.929,0.599,1.170,0.821,0.373,0.664,0.628,�k�k��,4.8,��
2021/01/14,17:40,0.654,0.930,0.598,1.174,0.825,0.374,0.665,0.628,�k�k��,4.5,��
2021/01/14,17:50,0.656,0.931,0.597,1.170,0.827,0.373,0.665,0.628,�k�k��,4.9,��
2021/01/14,18:00,0.653,0.931,0.598,1.171,0.825,0.374,0.664,0.627,�k�k��,5.0,��
2021/01/14,18:10,0.655,0.929,0.599,1.173,0.826,0.372,0.664,0.628,�k�k��,6.6,��
2021/01/14,18:20,0.654,0.931,0.598,1.173,0.827,0.374,0.664,0.628,�k�k��,5.8,��
2021/01/14,18:30,0.653,0.930,0.597,1.170,0.827,0.372,0.664,0.626,�k�k��,5.4,��
2021/01/14,18:40,0.654,0.932,0.598,1.171,0.825,0.374,0.665,0.628,�k�k��,4.7,��
2021/01/14,18:50,0.654,0.930,0.596,1.171,0.823,0.372,0.665,0.628,�k�k��,5.0,��
2021/01/14,19:00,0.653,0.930,0.599,1.172,0.824,0.374,0.663,0.629,�k�k��,5.8,��
2021/01/14,19:10,0.652,0.930,0.598,1.171,0.825,0.373,0.665,0.627,�k,5.3,��
2021/01/14,19:20,0.653,0.930,0.598,1.173,0.826,0.374,0.663,0.628,�k,6.2,��
2021/01/14,19:30,0.654,0.930,0.597,1.172,0.826,0.373,0.664,0.627,�k,6.0,��
2021/01/14,19:40,0.653,0.931,0.597,1.171,0.826,0.372,0.663,0.627,�k,7.0,��
2021/01/14,19:50,0.653,0.930,0.597,1.169,0.826,0.373,0.663,0.627,�k,7.2,��
2021/01/14,20:00,0.653,0.931,0.598,1.171,0.828,0.372,0.664,0.628,�k,7.1,��
2021/01/14,20:10,0.654,0.931,0.598,1.172,0.827,0.373,0.665,0.626,�k,7.4,��
2021/01/14,20:20,0.655,0.930,0.598,1.172,0.827,0.372,0.665,0.628,�k,7.3,��
2021/01/14,20:30,0.652,0.929,0.598,1.173,0.826,0.372,0.664,0.628,�k�k��,8.1,��
2021/01/14,20:40,0.653,0.929,0.596,1.171,0.827,0.372,0.664,0.627,�k�k��,8.6,��
2021/01/14,20:50,0.653,0.932,0.597,1.171,0.828,0.373,0.663,0.627,�k�k��,7.9,��
2021/01/14,21:00,0.651,0.929,0.597,1.171,0.825,0.372,0.665,0.628,�k�k��,6.9,��
2021/01/14,21:10,0.651,0.930,0.598,1.170,0.824,0.373,0.662,0.626,�k�k��,6.3,��
2021/01/14,21:20,0.652,0.929,0.597,1.172,0.825,0.374,0.662,0.627,�k��,7.6,��
2021/01/14,21:30,0.654,0.932,0.597,1.171,0.824,0.374,0.664,0.627,�k��,7.9,��
2021/01/14,21:40,0.652,0.929,0.597,1.171,0.827,0.373,0.663,0.627,�k��,6.7,��
2021/01/14,21:50,0.651,0.929,0.596,1.171,0.827,0.372,0.663,0.627,�k��,7.4,��
2021/01/14,22:00,0.653,0.930,0.596,1.172,0.825,0.371,0.663,0.626,�k��,7.4,��
2021/01/14,22:10,0.652,0.927,0.596,1.173,0.823,0.372,0.663,0.628,�k�k��,6.8,��
2021/01/14,22:20,0.653,0.931,0.595,1.171,0.827,0.371,0.663,0.627,�k�k��,6.1,��
2021/01/14,22:30,0.654,0.928,0.596,1.170,0.825,0.372,0.663,0.628,�k�k��,6.2,��
2021/01/14,22:40,0.651,0.929,0.596,1.170,0.828,0.371,0.662,0.627,�k�k��,7.1,��
2021/01/14,22:50,0.654,0.931,0.598,1.170,0.826,0.373,0.663,0.626,�k�k��,7.3,��
2021/01/14,23:00,0.654,0.927,0.597,1.172,0.826,0.372,0.663,0.627,�k�k��,8.3,��
2021/01/14,23:10,0.649,0.931,0.597,1.173,0.826,0.372,0.662,0.627,�k�k��,7.4,��
2021/01/14,23:20,0.653,0.929,0.596,1.171,0.825,0.373,0.663,0.627,�k��,6.5,��
2021/01/14,23:30,0.651,0.929,0.597,1.169,0.824,0.371,0.662,0.626,�k��,6.0,��
2021/01/14,23:40,0.653,0.930,0.596,1.171,0.824,0.372,0.664,0.628,�k��,6.6,��
2021/01/14,23:50,0.653,0.930,0.596,1.170,0.825,0.373,0.662,0.626,�k��,5.5,��
